• In Moldova, Republic
  • List of Countries
  • For 7 days
  • Water Temperature
  • Satellite Maps
  • Weather Map
  • Weather Widgets
  • user-avatar
    Login

    Hourly Weather Annaba

    Today, 13 December, Wednesday

    Time Temperature Precipitation Wind Pressure Humidity
    00:00 +14°C° 0.1 mm 2 mps 762 mmHg 85%
    01:00 +13°C° 0.1 mm 3 mps 763 mmHg 87%
    02:00 +13°C° 0.1 mm 3 mps 763 mmHg 89%
    03:00 +13°C° 0.1 mm 3 mps 763 mmHg 91%
    04:00 +13°C° 0.1 mm 4 mps 764 mmHg 93%
    05:00 +13°C° 0.1 mm 4 mps 764 mmHg 93%
    06:00 +13°C° 0.1 mm 4 mps 764 mmHg 93%
    07:00 +13°C° 0.1 mm 4 mps 765 mmHg 92%
    08:00 +13°C° 0.1 mm 4 mps 765 mmHg 89%
    09:00 +14°C° 0.1 mm 4 mps 766 mmHg 86%
    10:00 +14°C° 0.1 mm 5 mps 766 mmHg 82%
    11:00 +14°C° 0.1 mm 5 mps 766 mmHg 80%
    12:00 +15°C° 0.1 mm 5 mps 766 mmHg 78%
    13:00 +15°C° 0.1 mm 5 mps 766 mmHg 75%
    14:00 +14°C° 0 mm 5 mps 766 mmHg 76%
    15:00 +14°C° 0 mm 5 mps 766 mmHg 76%
    16:00 +14°C° 0 mm 5 mps 766 mmHg 77%
    17:00 +13°C° 0 mm 4 mps 767 mmHg 79%
    18:00 +13°C° 0 mm 4 mps 767 mmHg 81%
    19:00 +12°C° 0 mm 4 mps 768 mmHg 83%
    20:00 +12°C° 0 mm 4 mps 768 mmHg 84%
    21:00 +11°C° 0 mm 3 mps 768 mmHg 85%
    22:00 +11°C° 0 mm 3 mps 768 mmHg 86%
    23:00 +10°C° 0 mm 3 mps 768 mmHg 86%

    Tomorrow, 14 December, Thursday

    Time Temperature Precipitation Wind Pressure Humidity
    00:00 +10°C° 0 mm 3 mps 768 mmHg 86%
    01:00 +10°C° 0 mm 3 mps 768 mmHg 86%
    02:00 +10°C° 0 mm 3 mps 767 mmHg 86%
    03:00 +10°C° 0 mm 3 mps 767 mmHg 86%
    04:00 +10°C° 0 mm 3 mps 767 mmHg 86%
    05:00 +9°C° 0 mm 3 mps 767 mmHg 86%
    06:00 +9°C° 0 mm 3 mps 767 mmHg 87%
    07:00 +9°C° 0 mm 3 mps 767 mmHg 87%
    08:00 +11°C° 0 mm 3 mps 767 mmHg 82%
    09:00 +12°C° 0 mm 3 mps 767 mmHg 77%
    10:00 +14°C° 0 mm 3 mps 767 mmHg 71%
    11:00 +16°C° 0 mm 3 mps 766 mmHg 63%
    12:00 +18°C° 0 mm 2 mps 765 mmHg 54%
    13:00 +19°C° 0 mm 2 mps 765 mmHg 45%
    14:00 +19°C° 0 mm 2 mps 764 mmHg 47%
    15:00 +19°C° 0 mm 2 mps 764 mmHg 48%
    16:00 +20°C° 0 mm 1 mps 763 mmHg 49%
    17:00 +18°C° 0 mm 1 mps 763 mmHg 54%
    18:00 +15°C° 0 mm 1 mps 763 mmHg 59%
    19:00 +13°C° 0 mm 1 mps 763 mmHg 64%
    20:00 +13°C° 0 mm 2 mps 763 mmHg 61%
    21:00 +13°C° 0 mm 2 mps 763 mmHg 59%
    22:00 +12°C° 0 mm 3 mps 763 mmHg 57%
    23:00 +12°C° 0 mm 3 mps 763 mmHg 56%

    Day after tomorrow, 15 December, Friday

    Time Temperature Precipitation Wind Pressure Humidity
    00:00 +12°C° 0 mm 3 mps 762 mmHg 55%
    01:00 +12°C° 0 mm 3 mps 762 mmHg 54%
    02:00 +12°C° 0 mm 3 mps 761 mmHg 55%
    03:00 +12°C° 0 mm 3 mps 761 mmHg 55%
    04:00 +12°C° 0 mm 3 mps 760 mmHg 56%
    05:00 +12°C° 0 mm 3 mps 760 mmHg 55%
    06:00 +12°C° 0 mm 3 mps 760 mmHg 54%
    07:00 +12°C° 0 mm 3 mps 760 mmHg 53%
    08:00 +13°C° 0 mm 3 mps 760 mmHg 51%
    09:00 +16°C° 0 mm 3 mps 760 mmHg 48%
    10:00 +18°C° 0 mm 3 mps 759 mmHg 45%
    11:00 +19°C° 0 mm 3 mps 759 mmHg 43%
    12:00 +20°C° 0 mm 2 mps 758 mmHg 40%
    13:00 +21°C° 0 mm 2 mps 758 mmHg 37%
    14:00 +21°C° 0 mm 2 mps 757 mmHg 41%
    15:00 +20°C° 0 mm 2 mps 757 mmHg 46%
    16:00 +20°C° 0 mm 2 mps 756 mmHg 50%
    17:00 +18°C° 0 mm 2 mps 756 mmHg 53%
    18:00 +18°C° 0 mm 1 mps 756 mmHg 57%
    19:00 +16°C° 0 mm 1 mps 756 mmHg 60%
    20:00 +16°C° 0 mm 1 mps 756 mmHg 60%
    21:00 +15°C° 0 mm 2 mps 756 mmHg 60%
    22:00 +15°C° 0 mm 2 mps 757 mmHg 60%
    23:00 +15°C° 0 mm 2 mps 756 mmHg 60%

    16 December, Saturday

    Time Temperature Precipitation Wind Pressure Humidity
    00:00 +15°C° 0 mm 2 mps 756 mmHg 61%
    01:00 +15°C° 0 mm 2 mps 756 mmHg 61%
    02:00 +15°C° 0 mm 2 mps 755 mmHg 62%
    03:00 +14°C° 0 mm 2 mps 755 mmHg 64%
    04:00 +14°C° 0 mm 2 mps 755 mmHg 66%
    05:00 +13°C° 0.4 mm 3 mps 755 mmHg 69%
    06:00 +13°C° 0.4 mm 3 mps 755 mmHg 71%
    07:00 +12°C° 0.4 mm 4 mps 755 mmHg 74%
    08:00 +13°C° 0.7 mm 4 mps 755 mmHg 74%
    09:00 +13°C° 0.7 mm 4 mps 756 mmHg 75%
    10:00 +14°C° 0.7 mm 4 mps 756 mmHg 75%
    11:00 +13°C° 0.5 mm 5 mps 756 mmHg 79%
    12:00 +13°C° 0.5 mm 5 mps 757 mmHg 84%
    13:00 +12°C° 0.5 mm 5 mps 757 mmHg 88%
    14:00 +12°C° 0.4 mm 5 mps 758 mmHg 88%
    15:00 +12°C° 0.4 mm 5 mps 758 mmHg 87%
    16:00 +12°C° 0.4 mm 5 mps 759 mmHg 86%
    17:00 +10°C° 0.1 mm 5 mps 759 mmHg 86%
    18:00 +10°C° 0.1 mm 5 mps 760 mmHg 85%
    19:00 +10°C° 0.1 mm 5 mps 761 mmHg 84%
    20:00 +9°C° 0 mm 5 mps 761 mmHg 84%
    21:00 +9°C° 0 mm 5 mps 762 mmHg 84%
    22:00 +8°C° 0 mm 5 mps 762 mmHg 85%
    23:00 +8°C° 0 mm 5 mps 762 mmHg 85%

    17 December, Sunday

    Time Temperature Precipitation Wind Pressure Humidity
    00:00 +8°C° 0 mm 5 mps 763 mmHg 85%
    01:00 +8°C° 0 mm 5 mps 763 mmHg 85%
    02:00 +7°C° 0.1 mm 4 mps 763 mmHg 84%
    03:00 +7°C° 0.1 mm 4 mps 763 mmHg 84%
    04:00 +7°C° 0.1 mm 4 mps 763 mmHg 84%
    05:00 +7°C° 0.1 mm 4 mps 763 mmHg 84%
    06:00 +8°C° 0.1 mm 3 mps 763 mmHg 84%
    07:00 +8°C° 0.1 mm 3 mps 764 mmHg 83%
    08:00 +9°C° 0.2 mm 3 mps 764 mmHg 80%
    09:00 +10°C° 0.2 mm 3 mps 764 mmHg 77%
    10:00 +11°C° 0.2 mm 3 mps 764 mmHg 74%
    11:00 +11°C° 0.4 mm 3 mps 764 mmHg 73%
    12:00 +12°C° 0.4 mm 3 mps 764 mmHg 72%
    13:00 +12°C° 0.4 mm 3 mps 764 mmHg 70%
    14:00 +12°C° 0.4 mm 4 mps 764 mmHg 72%
    15:00 +12°C° 0.4 mm 4 mps 764 mmHg 75%
    16:00 +11°C° 0.4 mm 4 mps 764 mmHg 77%
    17:00 +11°C° 0.2 mm 4 mps 764 mmHg 80%
    18:00 +10°C° 0.2 mm 4 mps 765 mmHg 84%
    19:00 +10°C° 0.2 mm 4 mps 765 mmHg 87%
    20:00 +8°C° 0.3 mm 5 mps 765 mmHg 87%
    21:00 +8°C° 0.3 mm 5 mps 766 mmHg 87%
    22:00 +8°C° 0.3 mm 5 mps 766 mmHg 88%
    23:00 +8°C° 0.1 mm 6 mps 766 mmHg 86%

    18 December, Monday

    Time Temperature Precipitation Wind Pressure Humidity
    00:00 +8°C° 0.1 mm 6 mps 766 mmHg 85%
    01:00 +8°C° 0.1 mm 6 mps 766 mmHg 83%
    02:00 +8°C° 0.3 mm 6 mps 766 mmHg 84%
    03:00 +7°C° 0.3 mm 6 mps 767 mmHg 85%
    04:00 +7°C° 0.3 mm 6 mps 767 mmHg 86%
    05:00 +7°C° 0.6 mm 5 mps 767 mmHg 86%
    06:00 +7°C° 0.6 mm 5 mps 767 mmHg 86%
    07:00 +7°C° 0.6 mm 4 mps 768 mmHg 86%
    08:00 +8°C° 0.7 mm 4 mps 768 mmHg 84%
    09:00 +8°C° 0.7 mm 4 mps 768 mmHg 81%
    10:00 +10°C° 0.7 mm 3 mps 769 mmHg 78%
    11:00 +10°C° 0.6 mm 3 mps 769 mmHg 76%
    12:00 +10°C° 0.6 mm 3 mps 768 mmHg 75%
    13:00 +11°C° 0.6 mm 3 mps 768 mmHg 73%
    14:00 +11°C° 0.3 mm 3 mps 768 mmHg 72%
    15:00 +10°C° 0.3 mm 2 mps 768 mmHg 72%
    16:00 +10°C° 0.3 mm 2 mps 768 mmHg 72%
    17:00 +9°C° 0.1 mm 2 mps 769 mmHg 76%
    18:00 +8°C° 0.1 mm 2 mps 769 mmHg 80%
    19:00 +9°C° 0.1 mm 1 mps 769 mmHg 84%
    20:00 +8°C° 0.1 mm 1 mps 770 mmHg 84%
    21:00 +7°C° 0.1 mm 2 mps 770 mmHg 84%
    22:00 +7°C° 0.1 mm 2 mps 770 mmHg 84%
    23:00 +7°C° 0.1 mm 2 mps 770 mmHg 84%
    Show more